• In Uzbekistan
  • List of Countries
  • For 7 days
  • Water Temperature
  • Satellite Maps
  • Weather Map
  • Weather Widgets
  • user-avatar
    Login

    Hourly Weather São Luís

    Today, 13 December, Wednesday

    Time Temperature Precipitation Wind Pressure Humidity
    00:00 +29°C° 0 mm 3 mps 757 mmHg 78%
    01:00 +29°C° 0 mm 3 mps 757 mmHg 79%
    02:00 +28°C° 0 mm 3 mps 757 mmHg 79%
    03:00 +28°C° 0 mm 3 mps 756 mmHg 79%
    04:00 +28°C° 0 mm 3 mps 756 mmHg 79%
    05:00 +28°C° 0 mm 3 mps 757 mmHg 80%
    06:00 +28°C° 0 mm 3 mps 757 mmHg 80%
    07:00 +30°C° 0 mm 3 mps 757 mmHg 74%
    08:00 +32°C° 0 mm 4 mps 758 mmHg 69%
    09:00 +33°C° 0 mm 4 mps 758 mmHg 61%
    10:00 +34°C° 0.2 mm 4 mps 758 mmHg 60%
    11:00 +34°C° 0.2 mm 4 mps 758 mmHg 59%
    12:00 +35°C° 0.2 mm 4 mps 757 mmHg 58%
    13:00 +34°C° 0.7 mm 4 mps 757 mmHg 60%
    14:00 +34°C° 0.7 mm 4 mps 757 mmHg 63%
    15:00 +33°C° 0.7 mm 4 mps 756 mmHg 65%
    16:00 +32°C° 1 mm 4 mps 757 mmHg 71%
    17:00 +30°C° 1 mm 4 mps 757 mmHg 76%
    18:00 +29°C° 1 mm 4 mps 757 mmHg 82%
    19:00 +29°C° 0.9 mm 4 mps 757 mmHg 83%
    20:00 +28°C° 0.9 mm 4 mps 758 mmHg 83%
    21:00 +28°C° 0.9 mm 4 mps 758 mmHg 84%
    22:00 +28°C° 1.9 mm 4 mps 758 mmHg 85%
    23:00 +28°C° 1.9 mm 4 mps 758 mmHg 85%

    Tomorrow, 14 December, Thursday

    Time Temperature Precipitation Wind Pressure Humidity
    00:00 +28°C° 1.9 mm 4 mps 758 mmHg 86%
    01:00 +27°C° 1.8 mm 4 mps 758 mmHg 86%
    02:00 +27°C° 1.8 mm 4 mps 758 mmHg 87%
    03:00 +27°C° 1.8 mm 4 mps 758 mmHg 87%
    04:00 +27°C° 1.1 mm 4 mps 758 mmHg 87%
    05:00 +27°C° 1.1 mm 3 mps 758 mmHg 88%
    06:00 +27°C° 1.1 mm 3 mps 758 mmHg 88%
    07:00 +28°C° 1.2 mm 4 mps 758 mmHg 86%
    08:00 +29°C° 1.2 mm 4 mps 758 mmHg 83%
    09:00 +29°C° 1.2 mm 4 mps 759 mmHg 80%
    10:00 +30°C° 1.1 mm 4 mps 758 mmHg 78%
    11:00 +30°C° 1.1 mm 4 mps 758 mmHg 77%
    12:00 +32°C° 1.1 mm 4 mps 758 mmHg 75%
    13:00 +32°C° 0.8 mm 4 mps 757 mmHg 75%
    14:00 +32°C° 0.8 mm 4 mps 757 mmHg 75%
    15:00 +32°C° 0.8 mm 4 mps 756 mmHg 76%
    16:00 +30°C° 0.1 mm 4 mps 756 mmHg 78%
    17:00 +29°C° 0.1 mm 4 mps 756 mmHg 80%
    18:00 +28°C° 0.1 mm 3 mps 756 mmHg 82%
    19:00 +28°C° 0 mm 3 mps 757 mmHg 82%
    20:00 +28°C° 0 mm 3 mps 757 mmHg 82%
    21:00 +28°C° 0 mm 3 mps 758 mmHg 83%
    22:00 +28°C° 0 mm 3 mps 758 mmHg 82%
    23:00 +28°C° 0 mm 3 mps 758 mmHg 82%

    Day after tomorrow, 15 December, Friday

    Time Temperature Precipitation Wind Pressure Humidity
    00:00 +28°C° 0 mm 3 mps 758 mmHg 82%
    01:00 +28°C° 0.4 mm 3 mps 757 mmHg 83%
    02:00 +27°C° 0.4 mm 3 mps 757 mmHg 84%
    03:00 +27°C° 0.4 mm 3 mps 756 mmHg 86%
    04:00 +27°C° 0.8 mm 3 mps 756 mmHg 86%
    05:00 +27°C° 0.8 mm 3 mps 757 mmHg 86%
    06:00 +27°C° 0.8 mm 2 mps 757 mmHg 86%
    07:00 +28°C° 0.2 mm 3 mps 757 mmHg 81%
    08:00 +29°C° 0.2 mm 3 mps 758 mmHg 75%
    09:00 +30°C° 0.2 mm 4 mps 758 mmHg 69%
    10:00 +32°C° 0.7 mm 4 mps 758 mmHg 67%
    11:00 +32°C° 0.7 mm 4 mps 758 mmHg 66%
    12:00 +33°C° 0.7 mm 4 mps 757 mmHg 64%
    13:00 +33°C° 0.6 mm 4 mps 757 mmHg 66%
    14:00 +32°C° 0.6 mm 4 mps 756 mmHg 68%
    15:00 +32°C° 0.6 mm 4 mps 755 mmHg 70%
    16:00 +30°C° 0.1 mm 4 mps 755 mmHg 73%
    17:00 +30°C° 0.1 mm 4 mps 755 mmHg 76%
    18:00 +29°C° 0.1 mm 3 mps 756 mmHg 79%
    19:00 +29°C° 0.1 mm 3 mps 756 mmHg 80%
    20:00 +28°C° 0.1 mm 3 mps 756 mmHg 81%
    21:00 +28°C° 0.1 mm 3 mps 757 mmHg 82%
    22:00 +28°C° 0 mm 3 mps 757 mmHg 83%
    23:00 +28°C° 0 mm 3 mps 757 mmHg 83%

    16 December, Saturday

    Time Temperature Precipitation Wind Pressure Humidity
    00:00 +28°C° 0 mm 3 mps 757 mmHg 84%
    01:00 +28°C° 0 mm 3 mps 756 mmHg 84%
    02:00 +28°C° 0 mm 3 mps 756 mmHg 85%
    03:00 +27°C° 0 mm 3 mps 756 mmHg 86%
    04:00 +27°C° 0 mm 3 mps 756 mmHg 86%
    05:00 +27°C° 0 mm 3 mps 756 mmHg 86%
    06:00 +27°C° 0 mm 3 mps 756 mmHg 86%
    07:00 +28°C° 0 mm 3 mps 757 mmHg 80%
    08:00 +30°C° 0 mm 4 mps 757 mmHg 74%
    09:00 +32°C° 0 mm 4 mps 758 mmHg 67%
    10:00 +33°C° 0 mm 4 mps 758 mmHg 64%
    11:00 +34°C° 0 mm 4 mps 757 mmHg 60%
    12:00 +35°C° 0 mm 4 mps 757 mmHg 56%
    13:00 +34°C° 0.1 mm 4 mps 756 mmHg 57%
    14:00 +34°C° 0.1 mm 4 mps 755 mmHg 58%
    15:00 +33°C° 0.1 mm 4 mps 755 mmHg 60%
    16:00 +32°C° 0 mm 4 mps 755 mmHg 64%
    17:00 +30°C° 0 mm 4 mps 755 mmHg 69%
    18:00 +29°C° 0 mm 4 mps 755 mmHg 73%
    19:00 +29°C° 0 mm 4 mps 756 mmHg 75%
    20:00 +29°C° 0 mm 4 mps 757 mmHg 77%
    21:00 +28°C° 0 mm 4 mps 757 mmHg 79%
    22:00 +28°C° 0 mm 4 mps 757 mmHg 80%
    23:00 +28°C° 0 mm 3 mps 757 mmHg 80%

    17 December, Sunday

    Time Temperature Precipitation Wind Pressure Humidity
    00:00 +28°C° 0 mm 3 mps 757 mmHg 81%
    01:00 +28°C° 0.3 mm 3 mps 757 mmHg 82%
    02:00 +28°C° 0.3 mm 3 mps 756 mmHg 83%
    03:00 +28°C° 0.3 mm 3 mps 756 mmHg 84%
    04:00 +28°C° 0 mm 3 mps 756 mmHg 84%
    05:00 +28°C° 0 mm 3 mps 757 mmHg 84%
    06:00 +28°C° 0 mm 3 mps 757 mmHg 84%
    07:00 +29°C° 0 mm 3 mps 757 mmHg 79%
    08:00 +30°C° 0 mm 3 mps 758 mmHg 74%
    09:00 +32°C° 0 mm 4 mps 758 mmHg 69%
    10:00 +33°C° 0 mm 4 mps 758 mmHg 64%
    11:00 +34°C° 0 mm 4 mps 758 mmHg 59%
    12:00 +35°C° 0 mm 4 mps 758 mmHg 54%
    13:00 +34°C° 0 mm 4 mps 757 mmHg 55%
    14:00 +34°C° 0 mm 4 mps 756 mmHg 56%
    15:00 +34°C° 0 mm 4 mps 756 mmHg 58%
    16:00 +33°C° 0 mm 4 mps 756 mmHg 62%
    17:00 +32°C° 0 mm 4 mps 756 mmHg 67%
    18:00 +30°C° 0 mm 4 mps 756 mmHg 72%
    19:00 +29°C° 0 mm 4 mps 757 mmHg 74%
    20:00 +29°C° 0 mm 4 mps 757 mmHg 75%
    21:00 +29°C° 0 mm 4 mps 758 mmHg 77%
    22:00 +29°C° 0.3 mm 3 mps 758 mmHg 79%
    23:00 +28°C° 0.3 mm 3 mps 758 mmHg 81%

    18 December, Monday

    Time Temperature Precipitation Wind Pressure Humidity
    00:00 +28°C° 0.3 mm 3 mps 758 mmHg 84%
    01:00 +28°C° 0.4 mm 3 mps 757 mmHg 85%
    02:00 +27°C° 0.4 mm 3 mps 757 mmHg 86%
    03:00 +27°C° 0.4 mm 3 mps 756 mmHg 87%
    04:00 +27°C° 0.4 mm 3 mps 757 mmHg 87%
    05:00 +27°C° 0.4 mm 4 mps 757 mmHg 88%
    06:00 +27°C° 0.4 mm 4 mps 757 mmHg 88%
    07:00 +28°C° 0.2 mm 4 mps 758 mmHg 82%
    08:00 +29°C° 0.2 mm 4 mps 758 mmHg 77%
    09:00 +32°C° 0.2 mm 4 mps 759 mmHg 71%
    10:00 +32°C° 0.2 mm 5 mps 758 mmHg 67%
    11:00 +33°C° 0.2 mm 5 mps 758 mmHg 64%
    12:00 +33°C° 0.2 mm 5 mps 757 mmHg 61%
    13:00 +33°C° 0.5 mm 5 mps 757 mmHg 64%
    14:00 +32°C° 0.5 mm 5 mps 756 mmHg 67%
    15:00 +32°C° 0.5 mm 5 mps 756 mmHg 71%
    16:00 +30°C° 0.3 mm 5 mps 756 mmHg 74%
    17:00 +29°C° 0.3 mm 4 mps 756 mmHg 77%
    18:00 +28°C° 0.3 mm 4 mps 757 mmHg 81%
    19:00 +28°C° 0.2 mm 4 mps 757 mmHg 82%
    20:00 +28°C° 0.2 mm 4 mps 757 mmHg 83%
    21:00 +28°C° 0.2 mm 4 mps 758 mmHg 84%
    22:00 +28°C° 0.2 mm 4 mps 758 mmHg 85%
    23:00 +28°C° 0.2 mm 4 mps 757 mmHg 85%
    Show more